[TLELIST] Archives

 

[TLELIST] Current TLEs

October 6th 2024 PDT

HST 1 20580U 90037B 24279.78464744 .00018700 00000-0 83502-3 0 9999 2 20580 28.4698 323.0651 0003134 162.2221 197.8482 15.19955639693865 ISS (ZARYA) 1 25544U 98067A 24280.38292282 .00008236 00000-0 15581-3 0 9994 2 25544 51.6367 124.6156 0009364 40.3703 18.0494 15.49286146475798 CXO 1 25867U 99040B 24281.57344857 .00001098 00000-0 00000-0 0 9998 2 25867 43.6010 144.7538 8770261 302.3429 0.5256 0.37809572 14981 ...Continue Reading

[TLELIST] Current TLEs

October 5th 2024 PDT

HST 1 20580U 90037B 24278.47142740 .00018346 00000-0 82018-3 0 9990 2 20580 28.4698 331.8929 0003213 148.8074 211.2710 15.19908996693661 ISS (ZARYA) 1 25544U 98067A 24279.10812394 .00032724 00000-0 59395-3 0 9994 2 25544 51.6399 130.9307 0008969 35.6774 108.0753 15.49236651475598 CXO 1 25867U 99040B 24281.57344857 .00001098 00000-0 00000-0 0 9998 2 25867 43.6010 144.7538 8770261 302.3429 0.5256 0.37809572 14981 ...Continue Reading

[TLELIST] Current TLEs

October 5th 2024 PDT

HST 1 20580U 90037B 24278.47142740 .00018346 00000-0 82018-3 0 9990 2 20580 28.4698 331.8929 0003213 148.8074 211.2710 15.19908996693661 ISS (ZARYA) 1 25544U 98067A 24279.10812394 .00032724 00000-0 59395-3 0 9994 2 25544 51.6399 130.9307 0008969 35.6774 108.0753 15.49236651475598 CXO 1 25867U 99040B 24281.57344857 .00001098 00000-0 00000-0 0 9998 2 25867 43.6010 144.7538 8770261 302.3429 0.5256 0.37809572 14981 ...Continue Reading

[TLELIST] Current TLEs

October 4th 2024 PDT

HST 1 20580U 90037B 24277.88046536 .00019870 00000-0 88934-3 0 9996 2 20580 28.4698 335.8650 0003247 142.9508 217.1310 15.19890521693575 ISS (ZARYA) 1 25544U 98067A 24278.37001157 .00037887 00000-0 66392-3 0 9999 2 25544 51.6369 134.5817 0007440 59.0565 285.4348 15.50176286475478 CXO 1 25867U 99040B 24278.92956533 .00001036 00000-0 00000-0 0 9995 2 25867 43.5704 144.8881 8773836 302.2750 0.5451 0.37812895 14977 ...Continue Reading

[TLELIST] Current TLEs

October 4th 2024 PDT

HST 1 20580U 90037B 24277.88046536 .00019870 00000-0 88934-3 0 9996 2 20580 28.4698 335.8650 0003247 142.9508 217.1310 15.19890521693575 ISS (ZARYA) 1 25544U 98067A 24278.37001157 .00037887 00000-0 66392-3 0 9999 2 25544 51.6369 134.5817 0007440 59.0565 285.4348 15.50176286475478 CXO 1 25867U 99040B 24278.92956533 .00001036 00000-0 00000-0 0 9995 2 25867 43.5704 144.8881 8773836 302.2750 0.5451 0.37812895 14977 ...Continue Reading

[TLELIST] Current TLEs

October 3rd 2024 PDT

HST 1 20580U 90037B 24276.43585777 .00017177 00000-0 76904-3 0 9993 2 20580 28.4698 345.5748 0003284 129.5775 230.5108 15.19839067693357 ISS (ZARYA) 1 25544U 98067A 24277.10775935 .00058167 00000-0 10146-2 0 9990 2 25544 51.6370 140.8376 0006781 55.2533 80.6283 15.50119673475289 CXO 1 25867U 99040B 24278.92956533 .00001036 00000-0 00000-0 0 9995 2 25867 43.5704 144.8881 8773836 302.2750 0.5451 0.37812895 14977 ...Continue Reading

[TLELIST] Current TLEs

October 3rd 2024 PDT

HST 1 20580U 90037B 24276.43585777 .00017177 00000-0 76904-3 0 9993 2 20580 28.4698 345.5748 0003284 129.5775 230.5108 15.19839067693357 ISS (ZARYA) 1 25544U 98067A 24277.10775935 .00058167 00000-0 10146-2 0 9990 2 25544 51.6370 140.8376 0006781 55.2533 80.6283 15.50119673475289 CXO 1 25867U 99040B 24278.92956533 .00001036 00000-0 00000-0 0 9995 2 25867 43.5704 144.8881 8773836 302.2750 0.5451 0.37812895 14977 ...Continue Reading

[TLELIST] Current TLEs

October 3rd 2024 PDT

HST 1 20580U 90037B 24276.43585777 .00017177 00000-0 76904-3 0 9993 2 20580 28.4698 345.5748 0003284 129.5775 230.5108 15.19839067693357 ISS (ZARYA) 1 25544U 98067A 24277.10775935 .00058167 00000-0 10146-2 0 9990 2 25544 51.6370 140.8376 0006781 55.2533 80.6283 15.50119673475289 CXO 1 25867U 99040B 24278.92956533 .00001036 00000-0 00000-0 0 9995 2 25867 43.5704 144.8881 8773836 302.2750 0.5451 0.37812895 14977 ...Continue Reading

[TLELIST] Current TLEs

October 2nd 2024 PDT

HST 1 20580U 90037B 24276.23886174 .00017021 00000-0 76208-3 0 9991 2 20580 28.4698 346.8989 0003286 127.8212 232.2679 15.19833761693589 ISS (ZARYA) 1 25544U 98067A 24276.37395833 .00047432 00000-0 83119-3 0 9997 2 25544 51.6382 144.4720 0007356 54.4438 303.9262 15.50074020475160 CXO 1 25867U 99040B 24276.28510669 .00000996 00000-0 00000-0 0 9992 2 25867 43.5327 145.0351 8778820 302.1951 0.5214 0.37812497 14967 ...Continue Reading

[TLELIST] Current TLEs

October 1st 2024 PDT

HST 1 20580U 90037B 24274.59720062 .00014727 00000-0 65943-3 0 9995 2 20580 28.4700 357.9327 0003277 112.3484 247.7456 15.19779408693336 ISS (ZARYA) 1 25544U 98067A 24275.11342934 .00057968 00000-0 10150-2 0 9991 2 25544 51.6379 150.7192 0007141 48.4365 111.4314 15.50010946474978 CXO 1 25867U 99040B 24276.28510669 .00000996 00000-0 00000-0 0 9992 2 25867 43.5327 145.0351 8778820 302.1951 0.5214 0.37812497 14967 ...Continue Reading
  • This mailing list is a public mailing list - anyone may join or leave, at any time.
  • This mailing list is announce-only.

International Space Station (ISS) / Hubble Space Telescope (HST) / Chandra X-Ray Observatory Orbital Data via EMAIL

Privacy Policy:

Private list